Weather History for Ellsworth AFB, SD

Change the Weather History Date:

Saturday, December 21, 2013

  Actual Average Record
Temperature  
Mean Temperature 12 °F -  
Max Temperature 17 °F 34 °F 59 °F (2005)
Min Temperature 6 °F 14 °F -16 °F (1998)
Degree Days  
Heating Degree Days 54    
Moisture  
Dew Point 5 °F    
Average Humidity 82    
Maximum Humidity 92    
Minimum Humidity 68    
Precipitation  
Precipitation 0.00 in - - ()
Sea Level Pressure  
Sea Level Pressure 29.88 in    
Wind  
Wind Speed 5 mph (NNE)    
Max Wind Speed 8 mph    
Max Gust Speed -    
Visibility 9 miles    
Events Snow    
Averages and records for this station are not official NWS values.
T = Trace of Precipitation, MM = Missing Value Source: NWS Daily Summary

Daily Weather History Graph

Daily Weather History Graph

Search for Another Location

Airport:

Trip Planner

Search our weather history database for the weather conditions in past years. The results will help you decide how hot, cold, wet, or windy it might be!

Date:

Astronomy

Dec. 21, 2013 Rise Set
Actual Time 7:24 AM MST 4:16 PM MST
Civil Twilight 6:51 AM MST 4:50 PM MST
Nautical Twilight 6:14 AM MST 5:26 PM MST
Astronomical Twilight 5:39 AM MST 6:02 PM MST
Moon 8:43 PM MST (12/21) 9:44 AM MST (12/21)
Length of Visible Light 9h 58m
Length of Day
8h 52m
Waning Gibbous, 84% of the Moon is Illuminated
Dec 21
Waning Gibbous
Dec 25
Last Quarter
Jan 1
New
Jan 7
First Quarter
Jan 15
Full

Hourly Weather History & Observations

Time (MST) Temp. Windchill Dew Point Humidity Pressure Visibility Wind Dir Wind Speed Gust Speed Precip Events Conditions
12:58 AM 9.1 °F -0.7 °F 3.9 °F 79% 29.79 in 10.0 mi West 5.8 mph - N/A   Clear
1:58 AM 12.4 °F 4.6 °F 6.8 °F 78% 29.78 in 10.0 mi NNW 4.6 mph - N/A   Clear
2:58 AM 9.9 °F -1.1 °F 4.3 °F 78% 29.80 in 10.0 mi West 6.9 mph - N/A   Clear
3:58 AM 10.6 °F -0.2 °F 4.5 °F 76% 29.79 in 10.0 mi WSW 6.9 mph - N/A   Clear
4:58 AM 11.7 °F 2.3 °F 5.2 °F 75% 29.80 in 10.0 mi WNW 5.8 mph - N/A   Scattered Clouds
5:58 AM 14.2 °F 6.7 °F 6.8 °F 73% 29.80 in 10.0 mi NW 4.6 mph - N/A   Overcast
6:58 AM 17.6 °F 10.7 °F 8.8 °F 68% 29.83 in 10.0 mi ENE 4.6 mph - N/A   Clear
7:58 AM 15.1 °F 5.2 °F 8.2 °F 74% 29.85 in 10.0 mi ENE 6.9 mph - N/A   Overcast
8:58 AM 12.9 °F 1.6 °F 7.5 °F 79% 29.90 in 10.0 mi East 8.1 mph - N/A   Overcast
9:54 AM 10.4 °F -0.4 °F 5.0 °F 79% 29.75 in 10.0 mi NE 6.9 mph - N/A   Overcast
9:58 AM 10.4 °F 0.8 °F 5.0 °F 79% 29.94 in 8.0 mi NE 5.8 mph - N/A   Overcast
10:58 AM 9.3 °F -2.8 °F 5.0 °F 83% 29.94 in 6.0 mi North 8.1 mph - 0.00 in Snow Light Snow
11:03 AM 8.6 °F -2.6 °F 5.0 °F 85% 29.74 in 9.0 mi North 6.9 mph - N/A Snow Light Snow
11:58 AM 9.3 °F -1.7 °F 4.6 °F 81% 29.95 in 10.0 mi North 6.9 mph - 0.00 in Snow Light Snow
12:28 PM 10.4 °F 2.2 °F 6.8 °F 85% 29.74 in 10.0 mi NNE 4.6 mph - N/A   Overcast
12:29 PM 10.4 °F 2.2 °F 6.8 °F 85% 29.74 in 10.0 mi NNE 4.6 mph - N/A   Overcast
12:58 PM 10.4 °F 0.8 °F 5.0 °F 79% 29.94 in 10.0 mi NE 5.8 mph - 0.00 in   Overcast
1:58 PM 9.1 °F -1.9 °F 4.5 °F 81% 29.97 in 10.0 mi NNE 6.9 mph - N/A   Overcast
2:13 PM 8.6 °F -2.6 °F 5.0 °F 85% 29.77 in 10.0 mi NNE 6.9 mph - N/A Snow Light Snow
2:58 PM 9.0 °F -2.2 °F 4.6 °F 83% 30.01 in 10.0 mi NNE 6.9 mph - 0.00 in Snow Light Snow
3:03 PM 8.6 °F -2.6 °F 5.0 °F 85% 29.81 in 8.0 mi NNE 6.9 mph - N/A Snow Light Snow
3:13 PM 8.6 °F -2.6 °F 5.0 °F 85% 29.82 in 9.0 mi NNE 6.9 mph - N/A Snow Light Snow
3:18 PM 8.6 °F -2.6 °F 3.2 °F 79% 29.81 in 10.0 mi NE 6.9 mph - N/A Snow Light Snow
3:22 PM 8.6 °F -2.6 °F 3.2 °F 79% 29.81 in 10.0 mi NE 6.9 mph - N/A Snow Light Snow
3:27 PM 8.6 °F -2.6 °F 3.2 °F 79% 29.82 in 10.0 mi NE 6.9 mph - N/A Snow Light Snow
3:32 PM 8.6 °F 0.1 °F 3.2 °F 79% 29.82 in 10.0 mi NE 4.6 mph - N/A Snow Light Snow
3:42 PM 8.6 °F -1.3 °F 5.0 °F 85% 29.83 in 10.0 mi NNE 5.8 mph - N/A Snow Light Snow
3:48 PM 8.6 °F 0.1 °F 5.0 °F 85% 29.83 in 10.0 mi NNE 4.6 mph - N/A   Overcast
3:52 PM 8.6 °F 0.1 °F 5.0 °F 85% 29.83 in 8.0 mi NE 4.6 mph - N/A Snow Light Snow
3:58 PM 8.6 °F 0.1 °F 3.2 °F 79% 30.02 in 6.0 mi NE 4.6 mph - 0.00 in Snow Light Snow
4:03 PM 8.6 °F 0.1 °F 3.2 °F 79% 29.83 in 4.0 mi NE 4.6 mph - N/A Snow Light Snow
4:27 PM 8.6 °F 2.0 °F 3.2 °F 79% 29.83 in 10.0 mi NNE 3.5 mph - N/A   Overcast
4:32 PM 8.6 °F 2.0 °F 3.2 °F 79% 29.83 in 10.0 mi North 3.5 mph - N/A   Overcast
4:37 PM 8.6 °F - 3.2 °F 79% 29.84 in 10.0 mi NNE 2.3 mph - N/A   Overcast
4:39 PM 8.6 °F 2.0 °F 3.2 °F 79% 29.84 in 10.0 mi North 3.5 mph - N/A   Overcast
4:49 PM 8.6 °F 2.0 °F 3.2 °F 79% 29.84 in 10.0 mi NNE 3.5 mph - N/A   Overcast
4:58 PM 8.1 °F - 3.9 °F 83% 30.04 in 9.0 mi NE 2.3 mph - 0.00 in   Overcast
4:59 PM 8.6 °F - 3.2 °F 79% 29.84 in 8.0 mi NNE 2.3 mph - N/A Snow Light Snow
5:04 PM 8.6 °F 2.0 °F 3.2 °F 79% 29.84 in 8.0 mi North 3.5 mph - N/A Snow Light Snow
5:10 PM 8.6 °F - 3.2 °F 79% 29.85 in 10.0 mi NE 2.3 mph - N/A   Overcast
5:32 PM 8.6 °F 0.1 °F 3.2 °F 79% 29.86 in 10.0 mi SE 4.6 mph - N/A Snow Light Snow
5:58 PM 7.5 °F -2.6 °F 3.7 °F 85% 30.06 in 8.0 mi SE 5.8 mph - 0.00 in Snow Light Snow
6:28 PM 6.8 °F -3.5 °F 3.2 °F 85% 29.86 in 5.0 mi SSE 5.8 mph - N/A Snow Light Snow
6:43 PM 8.6 °F -1.3 °F 5.0 °F 85% 29.87 in 6.0 mi SSE 5.8 mph - N/A Snow Light Snow
6:48 PM 8.6 °F 0.1 °F 5.0 °F 85% 29.86 in 6.0 mi SE 4.6 mph - N/A Snow Light Snow
6:58 PM 7.9 °F - 4.3 °F 85% 30.04 in 4.0 mi South 1.2 mph - 0.00 in Snow Light Snow
7:46 PM 8.6 °F -1.3 °F 5.0 °F 85% 29.86 in 9.0 mi Variable 5.8 mph - N/A   Overcast
7:50 PM 8.6 °F -1.3 °F 5.0 °F 85% 29.87 in 10.0 mi Variable 5.8 mph - N/A Snow Light Snow
7:58 PM 9.5 °F 3.0 °F 5.7 °F 85% 30.05 in 10.0 mi Variable 3.5 mph - 0.00 in   Overcast
8:00 PM 10.4 °F - 6.8 °F 85% 29.87 in 10.0 mi North 2.3 mph - N/A   Overcast
8:05 PM 10.4 °F - 6.8 °F 85% 29.87 in 10.0 mi Variable 1.2 mph - N/A   Overcast
8:22 PM 10.4 °F - 6.8 °F 85% 29.87 in 10.0 mi Calm Calm - N/A Snow Light Snow
8:27 PM 10.4 °F - 6.8 °F 85% 29.87 in 10.0 mi North 1.2 mph - N/A Snow Light Snow
8:31 PM 10.4 °F - 6.8 °F 85% 29.87 in 10.0 mi Calm Calm - N/A   Overcast
8:51 PM 12.2 °F - 6.8 °F 79% 29.87 in 10.0 mi West 2.3 mph - N/A   Overcast
8:55 PM 12.2 °F - 8.6 °F 85% 29.87 in 10.0 mi West 2.3 mph - N/A Snow Light Snow
8:58 PM 12.2 °F - 8.6 °F 85% 30.07 in 10.0 mi West 1.2 mph - 0.00 in Snow Light Snow
9:07 PM 12.2 °F - 6.8 °F 79% 29.88 in 9.0 mi Calm Calm - N/A   Overcast
9:17 PM 10.4 °F - 6.8 °F 85% 29.88 in 10.0 mi SW 2.3 mph - N/A   Overcast
9:24 PM 10.4 °F - 6.8 °F 85% 29.88 in 10.0 mi Calm Calm - N/A   Overcast
9:44 PM 10.4 °F -0.4 °F 6.8 °F 85% 29.89 in 10.0 mi ESE 6.9 mph - N/A   Overcast
9:49 PM 8.6 °F -2.6 °F 5.0 °F 85% 29.89 in 8.0 mi ESE 6.9 mph - N/A   Overcast
9:54 PM 8.6 °F -2.6 °F 5.0 °F 85% 29.89 in 8.0 mi ESE 6.9 mph - N/A   Overcast
9:58 PM 8.6 °F -2.6 °F 5.0 °F 85% 30.09 in 9.0 mi ESE 6.9 mph - 0.00 in   Mostly Cloudy
10:08 PM 8.6 °F 2.0 °F 5.0 °F 85% 29.90 in 10.0 mi East 3.5 mph - N/A   Overcast
10:58 PM 8.6 °F 2.0 °F 6.8 °F 92% 30.12 in 10.0 mi SW 3.5 mph - N/A   Overcast
11:03 PM 10.4 °F 2.2 °F 6.8 °F 85% 29.91 in 10.0 mi WNW 4.6 mph - N/A   Overcast
11:58 PM 7.3 °F -2.8 °F 4.3 °F 87% 30.12 in 10.0 mi West 5.8 mph - N/A   Mostly Cloudy